Location: Caltech
(34.1382°N, 118.1253°W)
Time: 06:02:18
(UTC-07:00)

Gbstr 26 Del rocket - Visible Passes

Search period start: 06 May 2016 00:00
Search period end: 16 May 2016 00:00
Orbit: 494 x 1267 km, 51.8° (Epoch: 05 May)

Date Brightness Start Highest point End Pass type
(mag) Time Alt. Az. Time Alt. Az. Time Alt. Az.
06 May 6.6 00:18:25 10° NW 00:24:17 22° N 00:30:15 10° NE visible
06 May 5.8 02:06:35 10° NW 02:13:59 36° NNE 02:21:02 10° E visible
06 May 4.3 03:54:06 10° NW 04:02:14 79° SW 04:09:27 10° SE visible
06 May 5.1 20:34:56 10° WSW 20:41:23 53° NW 20:49:01 10° NE visible
06 May 6.4 22:24:41 10° WNW 22:30:31 24° NNW 22:36:49 10° NE visible
07 May 6.5 00:14:36 10° NW 00:20:34 22° N 00:26:39 10° ENE visible
07 May 5.6 02:02:28 10° NW 02:10:06 41° NNE 02:17:21 10° E visible
07 May 4.3 03:50:05 10° NW 03:58:07 66° SW 04:05:16 10° SSE visible
07 May 5.4 20:31:08 10° WSW 20:37:27 45° NNW 20:44:53 10° NE visible
07 May 6.5 22:21:07 10° WNW 22:26:47 23° N 22:32:52 10° NE visible
08 May 6.4 00:10:42 10° NW 00:16:51 23° NNE 00:23:04 10° ENE visible
08 May 5.3 01:58:22 10° NW 02:06:12 47° NNE 02:13:37 10° ESE visible
08 May 4.4 03:46:06 10° NW 03:53:56 54° SW 04:01:00 10° SSE visible
08 May 5.7 20:27:25 10° W 20:33:35 39° NNW 20:40:46 10° NE visible
08 May 6.6 22:17:33 10° NW 22:23:04 21° N 22:28:58 10° NE visible
09 May 6.3 00:06:45 10° NW 00:13:06 25° NNE 00:19:31 10° ENE visible
09 May 5.0 01:54:15 10° NW 02:02:15 55° NE 02:09:48 10° ESE visible
09 May 4.6 03:42:11 10° WNW 03:49:45 44° SW 03:56:36 10° SSE visible
09 May 5.9 20:23:43 10° W 20:29:43 34° NNW 20:36:38 10° NE visible
09 May 6.6 22:13:56 10° NW 22:19:22 21° N 22:25:08 10° NE visible
10 May 6.2 00:02:45 10° NW 00:09:19 27° NNE 00:15:58 10° ENE visible
10 May 4.8 01:50:09 10° NW 01:58:16 64° NE 02:00:38 46° E visible
10 May 5.3 03:38:20 10° WNW 03:42:58 29° W 03:42:58 29° W visible
10 May 6.1 20:20:06 10° W 20:25:54 30° NNW 20:32:32 10° NE visible
10 May 6.6 22:10:17 10° NW 22:15:40 20° N 22:21:22 10° NE visible
10 May 6.0 23:58:43 10° NW 00:05:32 30° NNE 00:11:43 12° ENE visible
11 May 4.5 01:46:03 10° NW 01:54:10 75° NE 01:54:10 75° NE visible
11 May 6.0 03:34:35 10° WNW 03:36:36 17° WNW 03:36:36 17° WNW visible
11 May 6.3 20:16:30 10° WNW 20:22:06 27° NNW 20:28:27 10° NE visible
11 May 6.5 22:06:34 10° NW 22:11:57 20° N 22:17:40 10° NE visible
11 May 5.9 23:54:40 10° NW 00:01:42 33° NNE 00:06:12 20° ENE visible
12 May 4.7 01:41:58 10° NW 01:48:41 64° NW 01:48:41 64° NW visible
12 May 6.4 03:30:58 10° WNW 03:31:10 11° WNW 03:31:10 11° WNW visible
12 May 6.4 20:12:57 10° WNW 20:18:20 24° NNW 20:24:23 10° NE visible
12 May 6.5 22:02:46 10° NW 22:08:15 21° N 22:14:03 10° NE visible
12 May 5.7 23:50:34 10° NW 23:57:50 37° NNE 00:01:07 27° ENE visible
13 May 5.0 01:37:54 10° NW 01:43:38 50° WNW 01:43:38 50° WNW visible
13 May 6.4 20:09:24 10° WNW 20:14:35 22° NNW 20:20:22 10° NE visible
13 May 6.4 21:58:55 10° NW 22:04:31 22° N 22:10:27 10° ENE visible
13 May 5.4 23:46:28 10° NW 23:53:56 42° NNE 23:56:18 35° ENE visible
14 May 5.3 01:33:53 10° NW 01:38:49 40° WNW 01:38:49 40° WNW visible
14 May 6.5 20:05:50 10° NW 20:10:51 21° N 20:16:23 10° NE visible
14 May 6.3 21:55:01 10° NW 22:00:47 23° NNE 22:06:53 10° ENE visible
14 May 5.2 23:42:21 10° NW 23:50:00 48° NE 23:51:39 43° ENE visible
15 May 5.5 01:29:54 10° NW 01:34:10 33° WNW 01:34:10 33° WNW visible
15 May 6.2 21:51:03 10° NW 21:57:01 24° NNE 22:03:20 10° ENE visible
15 May 4.9 23:38:14 10° NW 23:46:02 55° NE 23:47:06 52° ENE visible
